Location: Borovka
(49.7741°N, 14.5280°E)
Time: 16:18:26
(UTC+00:00)

Cosmos 1269 Rocket - Pass Details

Date: 17 November 2025
Orbit: 768 x 775 km, 74.1° (Epoch: 13 December)

Event Time Altitude Azimuth Distance (km) Brightness Sun altitude
Rises 16:06:10 0° 199° (SSW) 3,227 7.8 -8.2°
Reaches altitude 10° 16:08:31 10° 198° (SSW) 2,306 7.0 -8.6°
Maximum altitude 16:13:46 82° 112° (ESE) 784 4.0 -9.4°
Drops below altitude 10° 16:19:03 10° 25° (NNE) 2,327 6.1 -10.2°
Enters shadow 16:21:02 - 25° (NNE) 3,101 6.7 -10.5°
